Flag for Canada Weather past 2 weeks in Thunder Bay, Ontario, Canada

Now
61 °F

Passing clouds.


Feels Like: 61 °F
Forecast: 57 / 79 °F
Wind: 3 mph from Northeast

Location: Thunder Bay

Current Time: Aug 30, 2015 at 11:07:38 PM

Latest Report: Aug 30, 2015 at 10:00 PM


Visibility: 15 mi

Pressure: 29.85 "Hg

Humidity: 88%

Dew point: 57 °F

Location of Thunder BayLocation

Historic Weather in Thunder Bay — Graph

°F

Thunder Bay temperature yesterday

Maximum temperature yesterday: 77 °F (at 6:00 PM)
Minimum temperature yesterday: 54 °F (at 8:00 AM)
Average temperature yesterday: 65 °F

Past Weeks' High & Low Weather Summary

 TemperatureHumidityPressure
High88 °F (Aug 16, 2:00 PM)100% (Aug 16, 4:00 AM)30.16 "Hg (Aug 16, 4:00 AM)
Low43 °F (Aug 21, 6:00 AM)29% (Aug 16, 3:00 PM)29.47 "Hg (Aug 19, 8:00 PM)
Average61 °F80%29.86 "Hg
* Reported Aug 15 10:00 PM — Aug 30 10:00 PM, Thunder Bay, Weather by CustomWeather, © 2015

Note: Actual official high and low records may vary slightly from our data, if they occured in-between our weather recording intervals... More about our weather records

Advertising

Thunder Bay weather history for previous 24 hours

 ConditionsComfort  
Time TempWeatherWind HumidityBarometerVisibility
10:00 PM
Sun, Aug 30
61 °FPassing clouds.3 mph88%29.85 "Hg15 mi
9:00 PM61 °FPartly sunny.5 mph94%29.83 "Hg20 mi
8:00 PM66 °FPartly sunny.7 mph83%29.83 "Hg20 mi
7:00 PM73 °FPartly sunny.6 mph74%29.81 "Hg20 mi
6:00 PM75 °FScattered clouds.6 mph69%29.81 "Hg20 mi
5:00 PM77 °FPartly sunny.7 mph69%29.81 "Hg20 mi
4:00 PM79 °FPartly sunny.5 mph65%29.81 "Hg20 mi
3:00 PM77 °FPartly sunny.6 mph69%29.83 "Hg20 mi
2:00 PM75 °FPartly sunny.7 mph69%29.83 "Hg20 mi
1:00 PM73 °FPartly sunny.7 mph69%29.83 "Hg20 mi
12:00 PM68 °FPartly sunny.6 mph83%29.86 "Hg20 mi
11:00 AM68 °FPartly sunny.2 mph78%29.86 "Hg10 mi
10:00 AM61 °FScattered clouds.2 mph94%29.88 "Hg10 mi
9:00 AM57 °FScattered clouds.No wind94%29.90 "Hg8 mi
8:00 AM54 °FLight fog.No wind100%29.90 "Hg5 mi
7:00 AM54 °FLight fog.No wind100%29.90 "Hg5 mi
6:00 AM55 °FFog.No wind94%29.90 "Hg6 mi
5:00 AM57 °FPassing clouds.2 mph94%29.91 "Hg8 mi
4:00 AM57 °FOvercast.2 mph94%29.93 "Hg10 mi
3:00 AM55 °FPassing clouds.No wind100%29.94 "Hg8 mi
2:00 AM55 °FPassing clouds.2 mph94%29.94 "Hg8 mi
1:00 AM55 °FPassing clouds.3 mph94%29.95 "Hg10 mi
12:00 AM55 °FPassing clouds.No wind100%29.96 "Hg15 mi
11:00 PM
Sat, Aug 29
57 °FClear.No wind94%29.97 "Hg10 mi
Weather by CustomWeather, © 2015

See weather overviewHow to use our weather pages